GALAXY 32 (G-32)

Last updated on Thu Nov 21 2024 00:02:45 GMT+0000 (Coordinated Universal Time)

1 54244U 22153B 24324.49103769 -.00000172 00000+0 00000+0 0 9995 2 54244 0.0091 313.3821 0001642 342.5162 208.8989 1.00271071 7389
UTC large
Height (km)
Speed (km/s)
/
Latitude / Longitude
Inclination (degrees)
Orbital Period (minutes)
Azimuth
Elevation
Range (km)
Doppler Factor

Next 0 passes for location: London (51.5072 / 0.1276)

Sorry there are no passes over London.